This demonstration page uses our WeatherBlox Daily Observations layout. Learn more.

Left ArrowRight Arrow

41.12389, -100.76542

Hourly Observations for November 11, 2015

Temp ( °F °C ) Dew Point ( °F °C ) Humidity (%) Winds ( mph kmh ) Pressure ( in mb ) Visibility ( mi km ) Precip ( " mm )
12:23 am 00:23 Partly Cloudy 38 3.3 32 0 79 79 NNE 14 22 29.77 1008 10 16 0.00 0.00
12:53 am 00:53 Partly Cloudy 38 3.3 31 -0.6 76 76 NNE 21 33 29.69 1005 10 16 0.00 0.00
1:53 am 01:53 Mostly Clear 35 1.7 30 -1.1 82 82 NNE 23 37 29.65 1004 10 16 0.00 0.00
2:38 am 02:38 Mostly Cloudy 34 1 30 -1 87 87 NNE 23 37 29.74 1007 10 16 0.00 0.00
2:53 am 02:53 Cloudy 34 1.1 30 -1.1 85 85 NNE 14 22 29.66 1004 10 16 0.00 0.00
3:53 am 03:53 Cloudy with Light Rain 34 1.1 31 -0.6 89 89 N 16 26 29.66 1004 7 11 0.01 0.25
4:53 am 04:53 Cloudy with Light Rain 34 1.1 31 -0.6 89 89 NNE 22 35 29.62 1003 7 11 0.01 0.25
5:53 am 05:53 Cloudy with Light Rain 34 1.1 31 -0.6 89 89 NNE 32 52 29.59 1002 10 16 0.01 0.25
6:53 am 06:53 Windy with Snow Likely 34 1.1 31 -0.6 89 89 NNE 32 52 29.58 1002 5 8 0.00 0.03
7:53 am 07:53 Cloudy with Light Rain 34 1.1 31 -0.6 89 89 NNE 26 43 29.62 1003 9 14 0.00 0.03
8:44 am 08:44 Cloudy with Light Rain 34 1 30 -1 87 87 N 20 31 29.71 1006 7 11 0.00 0.00
8:53 am 08:53 Cloudy with Light Rain 34 1.1 31 -0.6 89 89 N 15 24 29.67 1005 10 16 0.02 0.51
9:53 am 09:53 Cloudy with Light Snow 33 0.6 30 -1.1 89 89 NNW 18 30 29.67 1005 3 5 0.03 0.76
10:05 am 10:05 Cloudy with Light Snow 34 1 30 -1 87 87 NNW 18 30 29.74 1007 3 4 0.00 0.00
10:24 am 10:24 Cloudy with Light Snow 32 0 30 -1 93 93 NNW 18 30 29.71 1006 2 2 0.00 0.00
10:37 am 10:37 Cloudy with Light Snow 33 0.6 30 -1.1 89 89 NNW 16 26 29.71 1006 1 2 0.07 1.78
10:44 am 10:44 Cloudy with Nearby Thunderstorms 34 1 30 -1 87 87 N 21 33 29.71 1006 1 2 0.00 0.00
10:53 am 10:53 Windy with Snow Likely 33 0.6 30 -1.1 89 89 NNW 24 39 29.67 1005 1 1 0.10 2.54
11:43 am 11:43 Windy with Snow Likely 33 0.6 30 -1.1 89 89 NNW 26 43 29.74 1007 2 2 0.06 1.52
11:47 am 11:47 Windy with Snow Likely 34 1 30 -1 87 87 NNW 29 46 29.74 1007 2 3 0.06 1.52
11:53 am 11:53 Windy with Snow Likely 33 0.6 30 -1.1 89 89 NNW 25 41 29.68 1005 3 5 0.07 1.78
12:05 pm 12:05 Windy with Snow Likely 34 1.1 30 -1.1 85 85 NNW 23 37 29.74 1007 6 10 0.00 0.03
12:48 pm 12:48 Cloudy 34 1 30 -1 87 87 NNW 24 39 29.74 1007 10 16 0.00 0.00
12:53 pm 12:53 Cloudy 34 1.1 30 -1.1 85 85 NW 20 31 29.71 1006 10 16 0.00 0.03
1:19 pm 13:19 Windy with Snow Likely 34 1 30 -1 87 87 NW 20 31 29.77 1008 9 14 0.00 0.00
1:48 pm 13:48 Windy with Snow Likely 34 1 30 -1 87 87 NW 25 41 29.77 1008 3 4 0.00 0.03
1:53 pm 13:53 Windy with Snow Likely 33 0.6 30 -1.1 89 89 NW 23 37 29.74 1007 3 5 0.00 0.03
2:08 pm 14:08 Windy with Snow Likely 34 1 30 -1 87 87 NW 23 37 29.77 1008 9 14 0.00 0.00
2:22 pm 14:22 Cloudy 35 1.7 31 -0.6 85 85 NW 21 33 29.80 1009 9 14 0.01 0.25
2:45 pm 14:45 Cloudy 36 2 30 -1 81 81 NW 21 33 29.80 1009 10 16 0.00 0.00
2:53 pm 14:53 Cloudy 36 2.2 31 -0.6 82 82 NW 18 30 29.77 1008 10 16 0.01 0.25
3:53 pm 15:53 Mostly Cloudy 38 3.3 32 0 79 79 NW 20 31 29.77 1008 10 16 0.00 0.00
4:53 pm 16:53 Sunny 39 3.9 31 -0.6 73 73 NW 22 35 29.80 1009 10 16 0.00 0.00
5:53 pm 17:53 Clear 37 2.8 29 -1.7 73 73 NW 20 31 29.85 1011 10 16 0.00 0.00
6:53 pm 18:53 Clear 35 1.7 29 -1.7 78 78 NW 13 20 29.88 1012 10 16 0.00 0.00
7:53 pm 19:53 Clear 35 1.7 29 -1.7 78 78 WNW 14 22 29.90 1012 10 16 0.00 0.00
8:53 pm 20:53 Clear 34 1.1 29 -1.7 82 82 WNW 12 19 29.92 1013 10 16 0.00 0.00
9:53 pm 21:53 Clear 33 0.6 28 -2.2 82 82 NW 12 19 29.95 1014 10 16 0.00 0.00
10:53 pm 22:53 Clear 28 -2.2 25 -3.9 88 88 WNW 6 9 29.98 1015 10 16 0.00 0.00
11:53 pm 23:53 Clear 30 -1.1 24 -4.4 79 79 WNW 7 11 30.00 1016 10 16 0.00 0.00

Powered by AerisWeather